Theta_e
311 311 311 311 311 310 310 310 309 308 307 301 300 302 292 291 288 298 300 302 299 290 285 289 288 286 289 294 293 294 293 292 294 292 293 291 293 291 291 291 290 291 290 291 291 293 290 292 289 292 293 293 294 295 297 298 299 303 301 305 304 308 292 292 293 294 295 297 297 298 299 301 299 299 298 296 294 295 295 292 288 291 288 291 289 288 288
311 311 311 311 311 310 310 309 309 308 308 302 302 296 292 292 291 293 300 302 297 289 282 282 284 287 290 290 289 293 293 292 291 291 292 291 291 290 290 291 293 290 293 292 290 294 287 293 292 291 294 292 297 296 296 298 296 300 301 299 301 294 294 291 286 287 290 293 295 295 297 298 296 297 299 298 299 297 293 291 291 291 290 292 288 287 290
311 311 311 311 310 310 309 308 308 309 309 306 302 293 294 293 293 293 296 301 295 287 289 285 285 286 286 286 285 288 290 293 293 292 291 294 293 291 289 291 292 291 293 292 293 293 291 289 293 293 294 293 297 296 296 297 296 301 307 308 304 295 293 291 287 285 283 283 285 286 290 292 294 296 298 300 298 296 293 293 290 288 290 292 289 288 288
311 311 311 310 310 309 309 309 309 309 308 306 299 297 293 288 282 290 290 293 292 292 293 290 288 286 286 284 285 287 285 291 295 294 292 294 293 293 293 293 293 290 290 288 290 290 293 290 289 290 290 291 294 295 295 296 296 305 308 306 301 296 296 293 291 288 286 288 290 293 297 293 294 295 297 298 299 299 297 294 290 290 288 290 292 292 292
310 310 311 310 310 309 309 309 309 309 307 307 301 297 293 292 284 286 283 291 289 288 289 288 289 285 289 280 285 284 286 289 290 296 290 294 292 292 292 292 289 288 288 287 287 290 289 291 291 290 289 291 293 295 295 295 302 307 302 304 299 294 291 294 294 293 293 295 294 297 298 294 295 295 296 297 297 298 297 294 293 293 289 290 294 293 295
311 311 310 310 309 309 309 309 309 308 306 307 302 292 293 285 289 291 292 286 282 284 285 289 288 289 289 284 288 285 286 287 285 291 292 293 295 290 291 292 291 290 288 288 284 287 286 288 287 290 290 290 292 291 294 294 300 301 295 300 296 292 290 293 295 295 296 296 296 297 296 296 296 296 297 296 296 297 296 296 296 295 295 293 295 294 295
311 311 311 310 309 309 309 309 308 307 306 305 299 291 294 292 291 291 296 286 288 288 288 290 288 287 287 287 288 285 285 284 287 288 288 289 290 292 285 289 291 290 291 289 285 286 282 283 288 287 288 289 289 287 291 294 296 295 294 294 297 294 289 292 295 293 294 295 296 297 295 295 295 296 296 298 297 296 297 298 297 297 297 298 296 296 296
311 311 310 310 310 309 310 309 308 307 305 304 299 295 290 288 288 287 293 291 289 289 289 289 287 283 288 284 285 286 285 284 287 289 288 285 287 293 288 289 290 291 291 290 286 288 288 287 285 290 289 289 290 288 290 290 293 294 292 293 295 292 289 297 294 291 292 294 296 295 295 294 293 295 296 297 298 298 298 298 298 298 297 298 294 297 297
311 311 310 310 310 309 309 309 308 307 305 299 297 295 297 294 297 296 289 286 288 290 289 286 285 283 285 283 286 287 286 285 287 287 291 288 287 289 287 290 289 291 291 290 289 291 291 291 291 292 291 287 292 289 289 293 289 291 291 294 294 294 288 293 292 288 288 293 294 295 295 295 293 293 296 296 296 295 297 296 298 296 295 296 294 293 295
311 310 310 310 310 309 309 308 308 306 306 300 299 294 301 298 302 298 294 285 290 286 286 286 286 281 285 286 286 286 285 288 289 285 291 292 292 291 290 290 289 288 289 288 290 294 294 294 294 295 296 296 295 295 295 294 291 289 291 293 290 291 291 289 288 286 285 292 294 294 294 292 292 293 296 298 297 297 298 299 300 301 300 296 294 296 299
311 310 310 310 310 310 310 309 309 308 304 299 297 296 298 295 294 296 295 285 287 287 286 285 284 286 287 288 287 289 287 288 289 284 285 291 290 293 292 290 288 287 288 292 297 297 297 297 297 298 297 296 295 295 295 296 295 293 291 292 292 293 292 289 292 284 286 291 292 293 290 285 289 299 301 299 298 297 295 296 297 299 301 300 301 301 301
311 310 310 310 311 310 310 309 309 307 305 301 301 299 300 300 298 295 290 284 285 289 286 284 285 287 286 288 288 287 286 287 288 291 286 288 290 292 291 291 291 285 294 299 298 298 298 299 298 297 296 295 295 295 295 293 294 297 296 292 291 292 293 289 290 287 285 290 291 288 283 288 297 299 301 301 301 299 298 298 296 297 299 302 300 300 300
310 310 310 311 311 310 309 309 309 308 307 303 303 298 301 304 297 294 291 287 284 286 284 285 289 288 288 288 287 288 289 290 290 291 290 289 289 290 292 291 290 292 298 296 297 295 291 289 291 292 292 294 294 294 293 293 293 294 295 295 292 289 289 289 290 289 289 287 286 281 284 293 297 299 300 302 301 300 299 297 301 311 302 302 301 299 301
311 310 310 311 311 310 310 309 309 309 308 306 302 301 302 302 296 294 292 287 286 288 289 287 287 287 288 288 288 289 290 289 290 290 287 291 289 290 292 294 295 298 298 297 294 292 288 287 284 286 286 289 289 288 290 293 293 293 293 294 295 293 291 291 286 291 284 285 285 287 293 293 295 298 299 300 297 297 297 294 296 309 313 306 303 302 300
311 311 311 311 311 310 310 309 309 308 308 306 304 303 302 301 301 296 296 292 285 288 289 283 286 287 288 288 289 287 286 287 286 287 290 292 290 292 293 296 298 297 298 294 289 291 287 287 284 282 284 281 276 279 291 287 293 295 294 294 295 295 290 291 287 286 290 285 283 284 284 284 289 298 310 314 314 313 310 299 296 308 316 311 305 303 304
311 311 311 311 311 311 310 310 309 308 308 306 302 301 301 302 301 300 296 292 289 282 286 291 291 290 288 288 289 287 285 285 286 287 287 288 289 293 295 297 298 298 297 296 292 288 288 285 283 283 278 279 285 285 282 288 289 294 295 295 294 295 295 294 290 288 289 287 283 282 283 286 297 305 311 314 315 314 313 300 295 306 316 316 309 304 307
311 311 311 311 311 311 310 310 309 308 308 306 301 301 300 305 302 299 296 294 291 285 292 292 292 291 289 287 289 287 289 286 287 284 284 285 288 290 293 297 298 297 297 293 289 288 285 285 287 285 286 288 283 281 289 288 289 291 293 294 293 292 292 292 290 288 288 287 285 284 288 289 302 309 312 313 315 314 302 291 292 303 315 316 314 309 309
311 311 311 311 311 311 311 310 310 309 308 308 304 301 301 303 303 302 298 294 289 289 292 294 291 288 287 289 287 290 291 290 290 291 288 289 289 289 292 293 290 296 300 288 289 285 284 285 282 281 280 288 289 289 279 286 286 289 289 289 289 289 291 292 288 289 290 291 288 289 291 300 309 311 313 314 315 306 294 290 295 309 316 317 318 315 311
311 311 311 311 311 311 310 310 310 310 309 307 305 303 301 303 302 302 298 294 291 286 293 299 296 293 294 295 292 292 292 291 290 286 286 286 288 293 292 292 294 288 294 288 289 286 286 285 288 285 284 286 289 284 291 287 285 292 297 291 289 290 292 295 294 291 290 292 290 290 290 298 311 314 314 315 306 294 292 298 315 316 317 318 320 318 316
311 311 311 311 311 311 311 310 310 310 309 308 304 300 302 303 303 302 297 292 294 291 293 294 295 292 295 292 289 288 289 290 291 288 287 283 292 292 289 285 293 293 290 292 284 290 285 283 285 289 285 286 288 294 288 289 293 290 292 297 294 292 291 294 293 298 299 295 290 287 284 298 313 313 313 316 305 302 312 317 320 324 322 322 322 321 322
311 311 312 311 311 311 311 311 310 310 309 308 306 301 300 304 303 303 302 299 294 289 291 297 297 295 295 294 295 294 292 289 290 288 290 289 293 290 280 282 286 289 286 288 282 283 286 284 286 284 289 287 288 289 283 286 289 296 297 294 296 304 295 294 299 303 293 294 291 290 302 309 314 312 305 310 312 315 316 318 319 321 322 323 323 324 326
311 312 312 312 311 311 311 311 311 310 310 309 307 303 299 303 303 303 303 302 295 293 294 298 299 297 298 299 299 298 297 295 296 296 292 290 293 291 290 291 290 291 294 293 288 288 290 289 291 286 284 286 292 285 288 284 283 291 301 299 290 302 301 301 293 304 299 296 301 309 313 314 314 313 313 314 315 317 318 321 322 322 323 326 325 325 327
312 311 312 312 312 312 312 311 311 311 310 310 307 302 299 301 300 305 303 297 299 300 301 299 299 299 301 301 303 302 301 301 299 298 297 292 290 292 290 289 289 294 295 297 290 289 289 289 286 290 286 287 286 286 288 288 286 292 290 301 298 302 309 310 308 304 311 312 313 315 313 312 312 315 315 312 314 316 318 320 321 323 325 327 325 326 326
312 311 312 312 312 312 312 312 312 311 311 311 308 302 301 302 302 302 301 299 295 291 294 296 292 290 292 293 298 303 304 302 302 300 301 298 289 289 293 294 296 295 294 296 299 293 293 293 291 291 284 290 291 285 282 282 285 291 292 292 298 304 308 309 304 307 301 295 309 310 311 312 313 313 315 314 312 313 316 317 317 319 322 324 328 327 326
312 312 312 312 312 312 312 312 312 311 311 311 310 309 306 302 303 303 298 291 292 290 285 289 291 296 298 300 301 299 301 304 306 303 301 299 296 291 290 296 298 294 293 297 302 298 296 289 291 289 284 293 292 284 291 287 286 295 287 291 295 297 308 306 307 305 300 299 307 311 315 312 314 314 313 312 310 311 314 316 318 319 320 322 324 325 324
312 312 312 312 312 312 312 312 312 312 311 311 310 304 301 301 303 304 302 300 298 294 286 285 290 300 300 297 296 298 300 301 301 302 302 300 299 298 296 297 297 300 298 298 300 293 292 291 292 291 286 287 296 287 286 292 291 294 289 287 293 297 303 299 307 302 305 311 312 313 314 312 312 315 316 317 313 311 311 312 314 316 316 317 319 321 320
311 311 312 312 312 312 312 312 312 311 311 311 309 306 303 302 303 302 299 298 292 287 289 286 290 295 298 295 299 301 302 301 300 299 300 301 300 299 298 296 295 295 295 294 296 295 295 293 292 288 291 290 295 291 291 289 290 288 289 294 301 298 293 303 307 301 300 300 305 311 305 304 309 313 314 315 317 314 312 313 312 313 314 316 317 317 320
311 311 312 312 312 312 312 312 312 311 310 311 310 306 304 303 303 304 304 302 295 288 289 289 288 292 298 296 300 301 301 302 300 299 298 298 299 299 297 296 295 293 293 292 290 291 291 289 288 295 296 297 292 289 295 295 295 291 291 293 300 299 303 305 301 299 299 308 312 312 310 309 312 313 315 316 317 316 313 312 312 313 313 315 316 315 316
311 311 312 312 312 312 312 312 311 311 311 309 305 303 303 304 305 305 305 305 302 296 293 292 295 293 288 293 300 299 300 300 298 298 297 297 297 297 297 296 295 295 294 294 293 292 291 292 295 294 292 297 292 287 290 286 288 288 294 301 305 306 310 308 309 310 312 314 313 313 311 309 310 313 314 315 316 316 314 314 315 314 314 315 314 315 315
311 311 311 311 311 312 312 312 312 311 310 305 303 300 295 297 302 302 305 305 303 300 291 289 286 291 298 297 296 298 298 299 298 297 297 296 296 296 296 295 295 298 295 293 292 288 291 292 296 300 301 302 291 289 287 289 288 292 299 300 302 304 308 310 313 312 309 315 315 314 313 312 313 314 315 316 316 315 315 316 315 315 316 317 315 314 314
311 311 311 311 311 311 311 311 311 311 309 304 300 293 289 288 297 307 306 305 305 299 294 294 289 295 293 297 297 295 297 300 299 299 298 298 297 297 298 298 297 298 293 293 292 292 294 293 295 297 301 300 296 288 288 289 288 290 297 301 304 308 308 308 311 315 316 315 316 316 315 314 315 314 314 314 314 315 314 316 320 320 318 317 316 316 314
311 311 310 310 311 311 311 311 311 310 306 303 297 295 294 294 300 307 307 306 304 298 294 289 289 289 289 293 297 300 300 300 301 302 300 303 297 298 298 298 295 298 297 293 294 293 292 295 294 294 294 301 298 291 291 290 288 289 297 299 302 309 311 310 313 316 316 317 315 312 311 312 315 313 310 314 315 316 316 316 317 317 318 317 317 316 315
310 310 310 310 310 311 311 311 311 310 305 306 308 308 308 307 308 308 308 306 302 298 298 291 286 289 288 290 297 299 301 300 299 299 298 303 299 297 293 298 297 296 303 296 292 290 296 296 296 294 297 302 295 295 293 291 293 298 299 301 302 309 310 312 315 316 315 315 314 308 307 310 312 315 316 315 316 316 316 316 317 317 316 314 313 313 312
310 310 310 310 311 311 311 311 311 309 308 305 300 302 307 308 308 308 308 306 301 301 299 291 287 287 288 297 291 296 302 295 293 296 292 300 303 299 295 300 298 294 297 292 296 297 298 300 297 297 301 298 301 296 291 296 300 300 302 304 308 309 311 312 314 313 313 313 314 314 314 314 314 315 314 314 314 316 317 317 317 315 313 313 312 312 312
310 309 310 310 310 311 310 310 307 305 301 302 302 304 308 310 309 309 308 303 293 292 292 292 292 286 286 289 287 293 302 298 292 296 295 297 304 296 298 295 297 291 295 303 294 294 295 297 302 295 292 300 297 292 294 297 299 303 306 308 308 310 311 309 310 312 313 313 313 312 313 313 312 311 311 313 314 314 314 314 315 314 312 313 313 313 313
310 310 311 311 310 310 308 307 305 302 300 299 302 309 312 312 311 310 308 306 301 293 289 290 292 287 289 284 284 293 304 297 298 297 298 299 299 303 303 299 290 296 304 295 291 297 296 304 301 292 299 293 291 294 296 300 302 303 305 307 308 310 310 311 310 312 312 312 312 312 313 313 312 311 311 312 313 313 313 313 314 315 314 313 313 314 313
310 310 311 310 308 305 300 301 306 304 302 305 309 313 314 312 311 309 306 303 304 305 294 290 287 288 290 289 294 298 301 290 298 296 296 296 295 301 300 295 290 298 297 295 297 296 301 309 299 294 294 291 295 301 303 304 306 306 307 309 310 311 312 312 313 313 311 311 310 310 310 310 310 311 311 311 311 313 313 312 313 313 312 313 314 314 314
310 309 304 302 299 294 293 297 301 305 312 311 311 308 305 305 297 299 299 296 301 301 296 295 287 289 297 293 287 299 299 295 300 295 297 301 297 296 301 296 297 298 290 293 298 304 302 299 293 291 292 298 299 302 305 307 309 310 311 311 311 311 311 313 313 311 309 308 308 309 310 310 310 311 311 311 312 311 311 312 313 314 314 315 315 315 315
307 304 301 299 295 293 294 299 305 310 308 309 309 301 298 301 297 293 293 295 298 291 296 291 288 294 293 291 293 301 298 295 293 297 292 301 295 292 299 291 297 296 288 292 295 303 290 291 290 289 288 295 298 303 307 309 310 311 312 312 312 312 313 312 313 312 310 309 310 311 311 310 310 310 312 312 312 313 314 314 314 315 315 315 316 317 316
301 299 296 295 295 297 304 306 310 306 304 299 300 298 293 299 293 288 299 290 287 292 294 286 295 295 296 293 293 294 305 298 292 293 296 298 305 294 298 297 297 295 286 286 291 299 287 285 286 285 288 296 298 303 308 309 309 310 312 312 314 314 314 313 313 314 314 314 315 315 315 315 315 314 314 314 314 313 314 314 315 316 316 316 317 315 314
298 298 296 294 298 300 303 305 304 300 296 292 294 297 295 289 295 297 295 290 288 290 298 296 298 296 299 299 298 293 305 307 305 305 301 295 305 302 297 292 301 291 287 285 296 298 289 285 286 285 293 301 303 306 308 308 309 310 312 313 314 313 314 314 314 314 314 313 314 314 315 315 315 315 315 315 314 314 314 314 314 314 314 314 315 315 317
301 301 303 305 305 305 305 303 299 295 295 299 293 287 289 293 297 295 296 288 290 297 298 298 294 297 298 300 298 300 302 309 306 303 299 294 302 298 295 295 295 287 285 293 299 293 289 285 286 291 299 303 306 307 307 307 309 309 310 311 313 313 313 313 313 314 315 313 313 314 314 315 315 315 315 315 315 315 315 315 314 315 315 316 317 317 317
307 306 304 302 301 297 298 289 292 294 287 288 288 287 292 288 291 291 294 299 304 300 300 307 304 306 307 309 304 305 303 308 301 300 299 295 302 301 294 288 289 285 291 301 293 287 286 284 287 296 301 303 305 306 307 308 309 309 310 311 312 313 313 312 312 312 314 314 313 313 313 313 314 315 316 316 316 315 316 317 316 315 316 316 316 316 316
305 304 301 296 293 293 296 288 296 295 291 288 287 286 289 289 292 295 292 295 299 298 303 298 300 300 297 306 302 302 304 305 306 302 300 302 296 292 291 285 287 296 301 291 288 285 285 290 296 299 303 305 306 306 306 307 308 308 309 310 311 312 312 312 312 312 312 313 313 313 313 312 313 313 314 314 315 314 314 315 317 317 317 315 315 315 316
295 289 288 288 288 292 293 289 293 288 286 290 291 291 291 288 292 293 292 300 301 297 301 302 302 302 301 305 306 305 304 299 306 299 294 298 292 294 290 288 297 297 290 285 287 287 289 292 299 302 303 304 305 307 307 308 308 307 307 308 308 309 309 309 308 308 308 309 309 310 309 310 310 310 311 312 314 314 314 313 315 316 315 315 314 314 314
294 291 289 286 287 289 289 288 289 288 292 294 293 295 294 295 295 295 300 300 297 299 299 300 301 303 301 304 299 298 302 302 298 298 299 297 291 288 297 302 299 290 289 288 286 287 290 295 298 301 304 305 306 307 307 307 308 309 308 306 307 308 308 308 308 308 308 308 308 309 308 309 308 309 309 311 312 313 313 314 315 314 314 314 313 314 314
290 293 286 287 286 288 292 289 290 292 294 295 296 297 296 297 298 298 299 298 298 301 302 303 302 302 299 299 300 300 301 301 297 298 300 291 291 294 299 294 287 289 285 286 288 291 293 297 301 303 304 305 306 307 307 307 308 307 307 307 307 307 307 307 308 308 308 308 308 308 308 308 308 308 309 309 309 310 312 311 311 312 311 310 311 311 310
292 291 289 287 285 288 290 293 293 294 296 296 297 298 299 298 296 298 301 302 303 302 301 302 300 299 298 302 302 295 296 297 294 294 298 295 296 292 288 290 288 292 294 291 291 296 298 301 303 304 305 306 306 306 306 306 306 306 306 306 306 306 307 307 307 307 308 307 307 307 307 307 307 307 307 306 307 307 309 310 310 311 310 310 310 309 308
293 288 290 288 291 289 291 298 294 293 298 299 300 299 299 298 298 299 302 303 301 300 300 300 300 297 293 295 294 294 292 295 291 289 294 294 290 288 288 285 286 287 294 297 296 299 300 303 305 306 306 307 306 306 306 307 306 306 306 306 306 306 307 307 307 307 308 307 307 307 307 307 307 306 306 306 305 305 307 307 308 308 309 309 309 308 308
293 293 292 289 293 295 299 298 297 296 298 299 299 298 299 298 299 301 304 302 303 302 300 300 299 294 292 293 287 288 289 293 293 291 292 291 292 294 291 286 289 290 294 299 300 301 304 306 307 306 307 307 308 306 306 306 307 307 305 306 306 306 306 305 306 306 307 307 307 306 306 306 305 305 305 304 305 306 307 306 306 306 306 307 307 306 307
291 290 293 298 296 294 296 293 293 294 296 297 298 298 298 298 299 300 305 303 303 300 299 293 288 288 289 290 288 287 289 297 294 292 292 291 295 293 288 287 291 297 299 302 304 305 305 307 308 307 307 307 306 306 306 305 304 304 304 304 304 304 304 304 304 304 304 304 306 309 305 305 305 305 306 306 306 305 304 305 306 305 305 305 305 304 304
290 291 294 298 297 297 296 296 296 297 297 298 298 300 300 299 301 302 305 303 302 299 295 296 290 288 288 288 291 295 296 293 290 293 291 295 297 293 293 295 297 299 300 302 303 305 306 307 308 309 307 308 307 305 305 305 304 303 303 303 303 303 303 303 303 303 303 303 304 304 304 305 306 306 307 305 304 303 302 302 303 303 303 303 303 303 302
Wind_Speed
20 20 20 19 18 16 15 13 12 11 10 4 6 4 3 4 5 14 15 11 5 3 4 4 6 4 5 11 8 7 5 7 8 8 4 8 4 3 3 2 4 2 2 2 2 0 1 1 3 2 4 5 6 5 13 12 10 7 6 7 3 10 2 1 6 3 2 4 4 5 4 9 10 8 6 10 12 12 12 7 6 7 1 4 4 9 5
20 19 19 18 16 15 14 12 12 11 8 3 4 4 5 5 6 6 5 8 5 5 7 6 7 6 8 8 10 8 4 6 9 6 10 5 6 4 3 4 2 5 4 2 3 4 0 4 5 3 3 3 5 12 12 11 6 7 5 4 9 2 3 1 2 2 4 5 4 5 1 2 5 9 10 11 11 13 5 5 2 4 10 9 6 18 2
20 18 18 16 15 14 13 11 11 10 7 3 3 4 5 5 3 5 6 5 6 6 3 4 5 7 9 10 10 9 5 5 4 8 10 8 5 7 4 5 11 3 3 2 4 4 6 3 2 3 1 5 3 10 12 9 4 4 7 9 4 2 4 1 8 13 10 11 12 9 8 7 1 3 10 14 17 14 7 14 5 10 5 8 9 8 5
19 18 17 15 14 13 12 11 10 9 5 4 2 3 3 4 6 4 4 2 4 4 3 6 6 6 9 11 6 6 8 8 4 5 8 8 13 7 8 7 5 9 10 6 5 4 4 4 3 4 5 6 2 8 11 7 4 11 13 12 4 1 2 2 2 3 6 2 3 5 1 5 11 7 9 12 14 16 14 4 6 15 5 10 10 5 3
19 18 17 15 13 12 12 10 9 7 3 3 1 3 0 3 1 5 7 5 2 3 2 5 5 5 7 4 4 8 8 8 7 6 3 8 10 10 6 7 10 9 10 7 6 1 8 6 2 2 6 5 5 7 8 5 7 17 8 13 2 2 2 3 1 4 4 3 7 10 7 8 8 9 13 10 12 14 17 16 17 6 6 12 10 7 6
19 19 18 16 13 12 11 10 7 5 1 3 0 2 1 1 1 2 1 2 4 9 5 8 7 6 5 4 3 7 9 9 7 7 6 9 6 6 6 7 9 10 7 8 2 2 2 2 1 4 3 7 10 7 6 1 7 12 5 4 2 1 1 4 1 5 6 7 11 11 9 6 7 10 13 14 14 13 20 20 11 11 14 20 7 6 7
19 19 19 18 14 11 10 9 8 3 0 3 1 1 2 2 2 3 2 1 3 4 10 12 8 8 4 4 3 6 8 9 7 6 8 9 5 4 4 8 10 10 9 5 3 3 4 2 3 4 5 7 6 6 5 3 7 9 7 5 1 0 4 3 3 9 9 9 9 9 8 5 7 10 12 17 16 20 20 17 14 16 15 13 7 12 12
19 19 18 18 14 12 10 9 8 1 2 1 2 2 1 2 1 3 4 4 6 6 5 4 6 7 7 3 4 5 7 10 11 6 4 8 8 5 4 8 12 11 8 5 5 4 3 5 4 3 6 7 1 4 3 4 4 8 5 3 3 5 4 9 7 6 8 11 7 4 6 6 9 12 12 15 20 21 20 15 15 13 13 11 5 10 13
19 18 18 17 15 12 11 8 6 1 4 1 1 2 3 2 1 3 5 7 4 3 1 4 5 6 3 1 5 7 7 10 11 13 8 9 7 4 8 11 12 9 8 7 10 8 3 5 6 7 6 5 3 2 4 5 9 6 4 1 2 2 4 2 3 6 7 5 6 13 13 12 9 13 17 18 18 21 17 15 11 10 12 9 6 7 9
18 18 18 17 15 14 13 8 6 2 3 1 2 3 1 1 2 1 2 4 4 6 2 2 4 4 1 3 6 6 11 10 11 10 4 3 2 7 11 12 10 10 9 9 8 9 11 12 11 7 8 8 9 9 9 8 6 2 2 2 3 2 1 3 3 6 3 10 4 12 13 9 11 18 21 19 11 8 8 11 12 17 13 11 14 16 6
19 18 18 17 16 15 14 9 8 2 5 2 2 3 2 3 3 2 2 5 2 4 3 3 3 4 6 7 10 10 9 9 8 5 5 9 14 11 10 11 9 9 9 9 5 8 13 14 15 10 9 11 12 10 10 11 11 9 4 2 2 2 2 2 1 0 5 12 10 6 4 6 20 6 3 8 15 11 9 10 10 10 15 11 10 10 9
19 18 17 17 14 15 14 11 7 5 7 3 1 3 3 2 4 3 3 4 7 5 5 6 7 9 9 10 8 10 10 10 11 8 12 11 14 13 11 9 4 7 3 4 10 10 13 12 13 10 11 13 13 14 15 14 13 11 9 9 6 3 1 1 2 1 5 8 7 3 6 16 0 13 2 10 11 11 14 13 8 10 13 1 3 6 9
20 19 18 16 15 14 14 12 8 3 7 3 3 4 2 1 2 2 3 5 7 6 8 8 4 8 10 11 11 9 8 9 11 13 12 12 12 10 6 5 6 6 6 11 11 11 7 8 8 8 9 8 10 13 14 15 15 13 11 11 8 6 7 2 1 3 2 4 2 3 11 6 11 15 13 5 10 11 11 15 10 3 7 8 7 8 11
19 19 18 17 16 14 14 12 10 5 4 6 5 5 5 4 3 3 2 3 6 5 4 9 7 8 7 8 8 11 10 10 8 8 9 5 9 13 12 6 6 7 10 8 6 4 3 1 3 3 4 1 2 3 10 16 17 16 17 15 13 12 4 3 3 3 3 5 4 8 10 16 10 3 3 6 3 2 9 13 11 7 8 11 10 10 9
20 19 18 18 16 16 13 11 10 8 4 5 5 5 5 3 4 3 2 3 8 8 4 6 4 5 9 10 8 10 10 8 8 7 5 8 9 7 8 8 8 10 9 6 2 1 2 2 3 4 4 1 1 5 4 5 7 19 20 18 15 13 12 5 6 3 7 4 6 5 3 4 3 1 5 3 6 7 12 7 12 6 11 12 14 13 9
19 19 19 18 17 16 15 13 11 7 7 6 4 4 4 4 3 3 3 5 4 8 4 8 7 6 6 7 7 9 8 7 6 9 9 3 5 8 6 8 9 9 5 2 1 1 2 2 4 3 3 3 3 3 4 3 4 8 18 20 19 17 16 11 10 4 2 4 5 4 4 6 2 9 11 12 8 11 12 1 14 6 14 11 13 13 11
20 19 19 19 18 17 15 13 11 7 7 6 4 4 5 5 5 4 4 4 5 9 4 7 6 7 8 8 5 5 3 5 5 8 8 6 7 10 11 5 5 4 1 1 1 2 2 3 3 2 4 1 2 5 7 2 6 2 9 15 18 15 12 9 9 9 6 5 6 8 3 5 4 11 14 16 11 9 1 4 12 3 6 7 8 12 12
20 20 19 19 18 18 17 15 13 10 8 6 6 5 4 4 7 4 4 5 6 8 6 10 9 5 6 4 6 5 3 5 6 5 8 9 8 6 6 6 8 1 1 1 1 2 4 4 4 4 5 3 2 3 6 3 4 2 4 9 10 11 10 12 13 12 11 11 8 6 7 2 7 14 16 16 12 1 6 14 3 2 9 8 10 11 11
24 24 23 23 22 20 19 18 16 13 11 7 5 5 7 6 5 6 5 5 4 8 3 2 3 7 5 2 7 5 5 7 7 7 8 9 3 2 8 7 4 5 3 1 2 2 3 3 2 0 1 2 3 2 4 5 4 7 4 8 8 11 10 8 10 12 11 8 9 10 6 2 10 13 14 11 3 4 10 3 8 11 7 8 9 10 8
25 26 24 23 22 21 21 20 18 16 13 7 6 5 4 4 6 8 6 6 4 11 8 9 7 15 7 7 8 7 5 5 6 6 6 9 2 10 9 4 1 2 2 1 1 2 3 2 2 1 0 1 1 3 6 8 10 8 7 10 6 11 10 10 12 6 3 3 6 3 7 1 14 15 9 7 4 4 7 13 13 5 8 2 4 6 7
26 25 25 24 24 23 21 20 20 17 15 11 7 5 5 4 6 6 8 6 5 10 9 4 7 12 10 12 13 12 9 11 6 7 7 8 2 2 4 2 1 3 3 2 3 2 2 3 3 0 2 1 3 4 5 7 11 9 11 9 6 4 9 4 6 5 6 5 7 5 0 5 8 9 3 8 8 12 13 10 9 5 4 7 2 5 6
26 25 25 24 24 23 22 21 20 18 15 13 6 4 7 4 5 4 6 6 7 9 9 7 7 11 13 13 12 11 13 14 15 10 9 9 6 7 7 7 7 1 2 1 2 3 1 2 2 1 2 3 2 5 5 8 7 8 1 2 7 4 3 5 6 4 5 6 5 3 3 2 6 6 5 8 12 12 13 6 1 4 3 4 2 9 10
25 26 25 25 24 22 22 21 20 17 16 16 9 5 7 2 3 3 4 7 5 7 7 9 9 12 12 14 16 16 15 14 14 11 10 9 10 8 9 8 8 4 4 3 4 4 5 4 5 1 3 3 3 5 5 6 8 5 6 2 7 18 10 2 4 2 1 2 5 5 2 3 5 7 6 9 11 11 7 7 5 5 4 2 2 6 9
26 25 24 25 24 22 21 21 20 18 16 15 10 4 5 5 4 2 3 5 6 9 9 8 4 7 6 9 7 8 11 11 14 15 11 10 9 6 5 7 2 4 5 8 7 5 1 1 3 1 4 2 0 4 4 6 7 8 11 10 4 8 12 6 4 3 5 3 2 2 3 0 7 9 10 9 10 10 8 8 8 6 6 5 6 6 7
24 25 24 22 24 23 21 20 18 18 15 16 13 8 6 4 4 5 4 7 3 2 9 7 10 15 15 12 12 7 8 9 9 11 10 11 14 11 8 4 10 8 7 4 3 4 5 6 3 2 5 2 3 7 4 7 8 4 6 7 7 9 7 7 2 4 5 3 6 6 5 3 6 9 10 11 12 12 10 8 7 6 6 6 7 7 8
25 25 25 25 23 22 20 19 17 16 14 14 12 6 6 6 5 6 5 5 3 2 6 8 8 2 0 5 7 6 4 7 10 12 13 14 15 15 13 7 9 6 6 4 2 5 4 5 5 5 5 4 5 5 5 7 10 10 12 19 13 14 14 6 4 5 2 2 3 4 5 6 10 13 11 9 9 9 9 8 8 8 7 8 9 8 7
27 26 26 25 24 22 21 18 16 14 12 10 7 5 6 4 7 9 6 3 3 6 7 10 9 7 1 9 12 8 7 8 8 9 11 14 14 13 12 10 11 8 8 8 5 5 4 6 6 9 6 4 1 6 6 9 7 8 8 13 13 8 12 11 5 6 6 5 4 4 5 2 6 10 12 12 12 9 6 8 10 10 9 8 9 9 8
28 27 26 24 24 23 21 19 16 12 9 10 7 6 5 7 7 9 8 8 9 7 4 6 7 8 11 17 9 6 6 6 8 9 10 11 14 14 13 13 11 8 7 5 5 5 5 6 9 5 3 3 5 7 5 9 9 11 13 12 8 10 10 7 8 11 8 3 2 3 11 9 5 9 9 8 11 10 7 6 9 10 9 8 6 7 9
27 27 26 25 23 22 20 18 16 13 9 5 2 2 5 8 9 10 11 10 9 7 7 10 10 8 6 9 9 9 6 6 7 9 9 10 11 12 13 13 12 10 7 6 6 3 4 7 3 4 3 4 3 7 2 6 6 9 9 8 8 9 9 9 10 3 7 7 6 4 8 8 6 12 8 7 7 8 6 4 6 10 10 7 6 3 7
27 28 27 24 21 18 17 16 14 11 5 4 2 0 4 5 2 6 9 11 9 4 5 6 7 4 2 3 8 8 7 3 8 9 10 9 9 10 12 11 10 9 7 7 5 6 8 6 4 3 3 6 3 3 5 4 6 8 9 9 10 12 12 10 9 2 8 6 5 11 16 13 11 12 7 5 6 8 6 7 6 10 11 10 6 5 5
28 28 27 24 20 17 16 14 11 7 7 3 3 1 1 3 1 2 8 9 8 6 4 4 8 6 7 4 4 10 10 9 5 6 9 11 11 12 11 9 8 8 7 8 7 10 4 4 3 3 5 10 8 4 4 5 7 6 7 8 10 9 8 9 6 3 9 10 10 11 13 12 11 12 9 6 7 8 7 7 9 11 13 10 6 4 5
26 27 26 24 20 17 16 12 10 10 7 7 7 5 5 3 2 5 8 7 8 4 4 5 5 3 4 4 2 3 5 7 4 3 3 3 5 7 7 10 8 10 8 7 6 3 6 8 7 7 6 8 9 4 5 7 10 11 10 12 13 9 7 8 4 5 9 11 14 14 9 8 12 7 3 6 6 5 5 8 10 8 9 9 5 5 8
27 24 24 24 21 18 15 11 10 10 7 7 8 11 9 6 4 9 8 8 5 3 1 2 5 4 4 5 6 5 2 1 1 3 5 2 2 2 3 6 6 4 8 5 3 5 4 5 4 6 10 8 5 4 6 10 11 11 12 14 15 9 5 8 4 6 8 4 3 11 9 6 12 6 2 7 6 5 5 6 6 7 9 9 9 10 12
26 25 24 22 18 14 10 6 8 9 4 1 5 7 8 11 9 11 9 6 2 1 1 2 3 4 6 5 5 5 1 2 3 1 2 4 1 1 1 0 2 2 4 7 3 2 2 2 6 6 1 6 6 5 6 6 8 10 11 14 8 5 4 3 4 7 4 7 9 9 10 11 13 8 5 9 6 4 5 5 6 8 9 10 10 10 8
26 26 25 21 11 3 4 7 6 4 3 4 5 6 3 8 13 15 13 4 4 3 2 3 2 5 4 2 2 5 2 2 2 0 1 4 2 0 1 1 1 1 2 0 2 4 2 3 1 4 6 3 4 4 3 8 13 10 5 3 2 3 3 4 4 6 8 9 12 12 11 12 12 8 7 8 7 3 5 5 4 7 9 9 9 10 9
26 26 22 14 6 6 4 4 2 3 3 4 5 4 9 9 10 9 10 6 2 2 2 3 2 4 2 4 4 3 3 5 1 1 2 2 3 1 1 1 2 5 1 3 3 1 2 1 2 5 2 3 4 3 6 9 11 8 6 3 3 3 0 4 8 11 10 12 12 12 12 11 11 9 6 5 5 6 5 5 3 5 9 10 10 8 8
25 21 13 2 4 0 1 2 2 3 4 3 4 3 6 8 4 4 3 3 1 1 2 1 4 5 3 4 2 3 4 5 2 2 1 1 2 1 1 1 3 2 1 2 2 3 3 2 4 6 4 4 6 6 9 11 7 5 5 6 6 1 7 9 11 14 14 14 14 11 12 13 11 8 8 7 5 4 7 6 4 8 10 10 8 8 5
24 13 1 1 0 1 1 1 2 2 7 12 9 2 2 1 2 2 2 1 1 3 3 1 6 2 1 3 6 2 2 3 2 3 2 0 2 1 0 1 3 2 3 2 2 5 4 1 2 4 6 6 10 9 7 7 8 7 4 4 5 4 4 7 14 15 16 15 13 14 14 13 11 7 10 9 7 8 6 4 5 6 7 7 6 4 5
9 3 2 1 1 1 1 2 2 11 7 2 0 1 0 1 1 2 3 2 2 2 2 3 5 4 4 5 7 3 4 4 5 2 3 0 1 2 0 2 0 1 2 2 2 7 4 3 2 3 5 8 7 5 6 5 8 9 8 7 6 6 8 8 6 12 12 11 10 9 13 14 13 10 8 9 7 6 6 6 6 6 6 5 5 6 7
3 5 2 3 0 2 2 4 10 6 0 1 1 0 2 1 1 2 2 2 1 2 2 5 4 4 7 9 6 5 3 4 3 2 2 3 1 2 1 1 1 3 3 2 3 4 2 4 2 3 5 4 3 5 7 8 8 10 9 9 10 10 10 12 12 10 12 11 12 11 11 11 11 10 9 9 9 9 8 7 6 5 6 7 6 6 7
3 2 2 2 4 3 5 7 4 0 1 2 2 1 1 2 2 1 0 1 2 2 3 4 2 3 4 3 4 6 1 1 2 2 2 3 1 1 1 3 2 2 2 2 4 3 2 2 2 2 1 4 11 11 8 8 10 10 10 10 11 10 11 13 14 11 11 11 11 11 11 11 11 11 10 10 9 9 8 8 8 8 8 8 7 6 5
2 2 5 5 6 6 5 2 0 1 1 1 1 2 1 3 1 0 1 0 2 1 3 4 4 3 3 5 5 3 3 2 2 1 1 2 0 2 3 2 2 2 2 3 3 4 3 3 4 4 8 10 9 9 9 11 12 13 12 12 13 12 12 13 13 11 11 11 10 11 11 11 11 10 10 10 9 8 8 9 10 10 9 6 7 8 7
14 9 2 2 2 2 1 2 2 2 2 3 3 3 2 2 2 4 3 0 1 1 2 2 3 3 2 2 1 3 1 0 1 1 1 2 1 1 2 2 2 3 4 2 3 4 4 3 6 12 11 10 12 12 11 12 11 11 12 12 12 13 13 14 14 13 12 11 12 11 10 11 11 9 8 9 10 11 9 9 9 9 9 9 9 9 8
2 1 0 1 1 2 1 2 1 2 1 1 2 5 6 7 8 5 5 6 5 3 1 5 6 5 3 1 1 1 1 1 1 1 1 0 2 3 2 3 2 4 2 2 4 6 6 3 12 14 14 13 13 14 14 13 13 13 14 13 13 12 11 11 12 13 11 10 11 11 10 10 11 11 11 9 9 10 10 10 10 11 12 13 11 10 10
1 4 3 3 2 3 2 2 2 3 4 4 2 2 4 8 10 8 6 5 1 8 10 5 4 5 5 2 0 0 1 1 2 1 3 1 2 1 2 3 2 1 3 3 3 2 1 11 11 12 13 13 12 12 12 11 12 12 11 12 12 11 12 13 13 12 12 11 11 11 11 10 11 12 11 10 8 8 10 10 10 11 11 11 11 12 10
5 1 2 3 6 3 2 1 2 4 2 1 3 6 8 8 7 8 6 2 5 8 8 8 7 4 2 2 2 2 2 1 2 2 1 1 2 3 1 1 1 3 2 2 5 12 13 11 9 10 11 11 10 11 11 11 10 10 11 12 11 12 13 13 13 12 11 10 10 10 10 10 11 12 12 10 10 10 10 10 10 11 11 12 12 11 9
2 1 2 1 2 1 1 3 4 1 4 6 7 7 7 9 8 8 6 2 6 6 6 5 3 1 2 4 3 2 2 1 2 1 1 3 2 2 1 2 4 3 3 5 6 6 8 10 10 9 10 10 10 10 10 11 11 12 12 11 12 13 13 13 13 12 11 11 12 12 10 11 11 11 12 13 11 9 9 10 11 10 10 10 9 10 10
1 1 1 3 2 1 7 3 2 5 4 4 7 7 6 5 3 8 8 4 5 5 5 5 2 2 2 2 1 0 2 2 2 2 1 1 1 1 3 3 3 3 3 6 10 7 8 8 7 9 10 10 10 10 10 11 12 14 13 13 13 13 14 14 12 12 12 12 11 11 11 12 13 12 12 11 12 11 10 10 10 10 11 12 12 12 12
2 2 2 1 0 1 2 7 7 7 10 9 8 8 11 12 10 8 8 5 4 4 2 1 3 1 3 3 3 3 5 4 4 3 3 3 3 3 3 4 6 5 6 6 8 8 8 8 7 6 8 11 11 10 11 10 11 12 12 12 11 11 12 13 13 12 13 12 12 12 12 12 12 12 12 12 12 11 11 12 13 12 12 12 13 13 13
4 3 3 3 3 2 6 6 3 9 11 11 12 13 11 10 11 11 8 9 8 5 3 2 2 4 1 2 3 3 2 4 3 2 4 6 5 4 3 5 7 5 4 6 8 8 7 6 7 10 11 9 9 9 9 10 11 11 10 11 11 11 11 13 14 13 13 12 12 12 12 12 12 12 12 11 10 11 13 14 13 13 13 12 13 13 13
1 3 2 1 5 4 6 9 11 9 11 11 10 10 9 9 10 11 11 8 9 3 6 6 2 3 3 3 3 4 2 2 3 5 4 4 3 4 3 4 4 7 6 5 7 8 8 9 8 7 8 10 10 10 9 10 10 10 10 11 11 12 12 13 13 13 14 13 13 14 14 11 9 9 8 10 13 15 15 14 13 12 13 12 12 13 13
3 4 5 7 5 5 5 2 2 5 4 6 8 8 8 11 11 10 10 6 8 14 9 4 3 3 3 6 3 1 2 2 3 4 7 7 4 6 9 9 8 5 3 8 9 9 10 10 9 9 8 9 10 10 11 11 11 11 11 12 12 13 13 12 12 12 12 12 12 11 10 10 11 12 13 14 15 14 13 11 10 12 12 11 10 11 12
Wind_Direction
338 340 342 342 339 339 337 334 332 332 350 352 350 316 325 345 271 281 290 299 341 41 75 47 23 350 337 328 306 305 322 327 333 321 347 343 305 326 320 314 323 295 360 310 327 111 242 232 212 3 51 87 55 355 356 345 352 12 13 333 29 326 148 250 285 354 305 287 313 323 284 207 204 208 174 168 196 199 215 210 179 186 233 229 247 250 263
339 340 341 342 341 340 338 334 332 332 358 338 322 338 334 308 296 311 300 323 341 68 46 5 353 336 321 337 313 311 306 349 344 336 330 324 343 337 299 294 58 309 354 301 314 341 359 31 45 22 7 127 68 22 354 357 11 18 2 356 328 1 302 152 127 249 225 269 336 302 15 162 214 195 204 193 197 206 200 96 89 193 205 189 152 245 233
339 339 340 342 342 343 338 332 332 334 343 355 351 336 318 292 245 237 293 335 9 50 70 47 346 343 334 328 322 327 335 346 340 330 320 319 352 319 322 319 308 351 319 353 352 26 45 314 27 33 14 346 21 10 351 334 355 334 345 1 297 216 264 348 207 209 204 202 210 212 220 219 222 253 198 205 198 194 149 219 174 218 235 178 213 246 248
338 339 339 341 343 342 340 334 334 338 342 21 42 311 322 352 338 310 323 356 6 65 94 76 12 341 344 337 312 335 317 326 329 343 306 347 352 336 308 342 324 24 3 15 11 342 33 45 319 6 342 355 35 360 321 336 299 347 358 358 340 235 281 166 221 230 224 225 252 245 228 166 213 197 202 213 212 200 203 174 174 218 194 204 227 174 229
338 340 339 342 339 337 336 334 333 340 345 356 57 322 138 295 320 321 347 323 90 37 77 32 18 335 327 315 300 319 317 323 335 338 315 355 345 318 310 22 24 4 14 358 340 325 360 327 340 26 20 328 325 307 284 304 352 0 5 358 348 34 347 282 253 239 232 273 285 292 293 284 247 191 214 208 207 210 208 205 221 124 117 244 224 184 182
338 341 342 343 341 336 335 335 328 341 20 339 45 334 299 8 320 358 320 325 310 347 343 357 329 297 328 260 278 292 319 342 337 337 335 333 345 340 316 4 13 5 1 333 320 343 352 282 301 3 22 342 331 347 315 202 8 5 8 345 55 145 218 275 18 308 310 282 277 278 282 233 251 240 211 204 207 204 214 219 209 156 207 233 213 153 190
338 341 342 345 345 338 338 338 330 337 293 7 20 333 300 232 279 276 354 359 314 305 290 308 308 309 324 276 308 308 334 328 334 345 319 328 322 335 299 333 345 345 343 344 286 332 11 328 9 12 339 357 333 337 337 318 13 13 349 5 311 98 258 249 340 316 313 296 279 283 263 262 255 248 239 220 202 212 214 216 209 201 221 233 170 179 199
338 340 341 344 346 345 340 336 330 340 130 59 298 194 275 311 346 311 332 255 280 272 281 285 315 314 331 335 282 321 330 324 328 345 323 316 302 336 328 319 336 328 325 313 292 281 327 323 337 318 14 326 357 301 245 280 355 0 344 338 318 51 294 331 340 334 314 301 305 318 339 310 266 252 235 233 225 219 212 208 214 210 236 227 165 187 213
338 338 339 342 345 344 339 335 335 204 127 306 280 299 182 250 223 290 304 305 283 277 267 312 316 307 304 210 314 337 326 325 324 307 289 260 266 18 313 309 316 309 301 286 280 289 298 295 281 298 282 263 280 355 291 354 326 341 314 346 328 32 264 12 10 356 313 300 356 330 324 312 265 249 239 229 226 226 218 211 197 187 211 213 196 221 233
336 337 339 341 344 340 340 339 329 258 167 261 273 279 40 291 232 213 271 285 308 309 285 274 301 285 281 317 327 326 311 311 319 318 280 195 272 332 312 311 308 297 292 286 287 317 316 302 289 269 264 254 262 251 257 269 259 290 276 302 290 191 288 345 352 346 257 283 345 324 315 325 298 248 230 228 228 244 247 226 193 202 186 201 211 227 193
336 338 339 341 342 345 342 343 334 153 146 230 261 271 261 264 299 304 216 280 229 204 304 259 210 288 319 311 309 307 297 305 302 306 296 332 313 318 307 304 307 286 289 287 325 317 297 293 286 272 247 241 247 251 251 246 243 231 236 276 261 208 187 203 100 72 275 294 323 302 298 240 234 283 178 189 223 214 233 238 211 208 184 220 202 211 193
336 337 337 338 341 341 343 340 338 190 182 215 219 264 275 299 292 230 270 288 294 316 294 290 292 294 292 298 301 294 297 295 300 305 296 299 296 303 301 295 278 293 250 315 319 308 296 275 263 253 233 230 233 237 237 241 238 226 221 223 241 257 252 216 152 217 282 297 315 312 213 236 353 332 302 197 201 198 217 239 218 211 214 177 160 197 195
336 334 338 337 339 339 337 341 337 285 202 210 211 257 254 221 270 254 270 273 282 302 297 287 279 280 284 288 283 280 277 287 290 292 285 286 293 292 282 288 280 267 315 312 310 311 307 279 279 261 255 231 227 229 234 234 237 232 225 215 217 229 236 220 236 192 269 323 256 225 237 257 326 302 291 257 188 197 209 237 234 223 208 192 204 205 207
332 333 334 334 333 333 332 336 332 315 235 194 229 238 245 233 233 248 237 282 280 264 275 289 274 264 274 279 290 298 300 291 282 274 279 271 286 289 293 282 271 300 301 297 299 268 284 342 322 341 323 285 228 232 228 230 228 223 222 217 209 215 218 179 263 187 196 225 216 244 299 312 320 310 26 13 347 311 207 224 243 207 189 180 203 215 218
327 327 328 330 329 330 329 325 327 313 287 202 223 239 250 254 251 253 251 236 276 281 248 271 252 272 296 293 306 308 303 295 304 291 264 280 271 261 267 291 306 301 296 313 299 314 215 279 333 3 309 41 355 264 202 223 225 218 216 214 204 199 203 186 183 241 202 248 301 311 324 267 274 233 309 329 317 306 306 253 252 217 198 189 187 203 205
321 321 321 322 323 324 324 323 325 320 266 237 213 240 244 232 209 238 240 253 289 288 245 236 264 290 287 290 297 289 289 294 292 303 304 273 272 289 292 296 290 287 302 290 296 314 274 235 237 219 244 215 250 353 302 266 225 193 208 209 206 201 202 200 181 219 156 210 229 230 234 247 218 324 320 315 317 319 298 190 246 216 190 189 181 193 191
316 315 315 315 318 318 318 316 312 300 294 210 217 226 261 198 215 215 234 243 223 245 275 298 290 281 293 288 285 253 225 275 325 315 312 314 318 309 301 303 280 263 227 218 258 282 268 214 248 237 264 329 24 215 254 271 294 227 187 196 202 203 202 194 202 223 214 222 231 248 217 262 330 324 329 320 316 314 91 195 242 205 153 173 177 190 185
307 307 306 307 310 314 314 315 309 302 290 241 213 236 252 186 209 226 236 245 270 273 238 243 246 246 234 228 262 265 261 268 268 262 275 297 302 298 322 340 328 314 278 306 245 228 241 219 207 211 247 228 237 281 251 245 269 252 177 182 189 207 211 198 201 206 221 214 249 278 286 295 349 339 324 319 317 82 163 216 266 251 170 182 184 200 189
306 306 305 306 307 306 309 309 307 301 296 268 209 243 248 227 214 206 241 252 231 261 153 260 194 236 237 231 245 255 244 272 283 289 292 301 270 326 344 302 266 299 27 34 326 269 250 233 185 160 232 314 314 229 288 267 257 276 248 190 196 200 191 192 194 210 214 211 221 235 257 232 348 334 329 316 344 193 215 264 304 290 262 177 169 168 165
307 309 309 306 304 302 301 302 302 301 291 260 184 239 230 179 195 194 209 246 242 269 269 256 247 256 247 233 249 249 258 243 218 242 263 269 1 346 328 342 360 265 276 257 289 246 292 222 214 251 287 300 245 292 306 258 255 258 299 302 244 186 191 186 187 164 185 149 204 231 256 293 3 337 344 38 13 263 306 305 303 313 316 281 126 140 153
312 311 310 308 303 299 295 290 292 293 290 278 197 237 255 206 216 206 208 224 261 283 282 221 236 244 253 247 239 240 233 245 226 232 239 254 290 336 275 248 306 22 322 5 310 327 330 311 27 34 237 239 297 337 273 295 299 277 228 251 260 235 193 198 192 168 156 169 191 205 250 300 350 13 338 329 312 297 299 295 293 331 359 318 91 103 120
311 308 308 306 303 299 297 290 283 283 280 276 232 213 250 220 188 194 211 199 239 241 268 292 288 272 260 251 249 237 235 239 242 233 259 267 237 231 258 290 283 287 285 320 299 285 200 294 297 294 291 280 207 239 277 308 281 288 290 250 246 235 228 184 174 213 144 191 186 133 167 39 17 359 327 305 307 308 294 272 339 357 333 337 347 121 120
308 310 308 306 303 299 295 292 287 279 275 273 259 218 244 235 206 209 191 245 241 262 267 276 265 263 264 257 244 241 238 238 248 244 227 242 259 233 238 243 255 209 233 181 227 242 280 286 264 292 288 235 237 294 273 213 266 297 290 246 286 290 293 226 107 207 126 68 95 141 84 33 31 34 5 335 323 317 323 11 33 8 7 23 99 100 113
307 310 307 305 304 302 298 294 290 281 271 268 254 201 239 217 215 181 222 238 266 292 281 239 276 270 231 267 262 211 227 232 226 230 222 205 241 259 227 227 217 249 233 220 184 223 260 250 264 167 243 221 147 264 279 290 239 282 287 284 262 275 274 254 128 181 134 226 164 124 164 356 48 43 14 349 335 336 351 20 19 2 353 38 87 101 95
302 307 307 305 303 302 300 297 292 286 273 262 261 245 229 219 171 174 222 270 251 271 293 303 249 253 264 259 273 262 217 217 210 215 211 204 216 229 231 140 190 215 238 231 141 221 228 257 273 223 255 215 126 270 191 251 284 46 317 291 309 276 273 273 194 136 158 194 165 193 170 124 67 56 29 353 339 340 5 20 25 15 13 40 65 82 89
304 307 309 308 307 305 304 302 296 286 276 262 252 226 221 225 161 184 210 225 246 244 273 280 281 118 324 301 262 230 219 207 210 206 205 207 210 220 235 255 263 241 267 262 212 244 258 260 257 261 263 274 161 241 238 206 272 293 272 267 247 270 299 254 165 141 230 151 164 183 152 67 46 50 35 352 341 339 356 14 27 24 35 50 62 66 82
308 310 311 306 307 308 307 304 297 287 274 257 244 231 222 216 176 181 188 188 256 277 235 252 277 287 240 279 280 285 253 237 226 216 214 210 214 217 225 232 242 246 252 265 247 256 246 246 246 258 223 237 189 249 270 280 239 257 252 256 255 239 252 255 191 134 189 176 185 176 117 297 6 44 36 350 336 332 26 46 46 40 39 39 65 66 66
311 310 308 307 307 307 307 303 299 288 265 249 245 224 214 223 205 198 197 184 186 232 283 282 282 293 317 280 263 250 248 221 214 216 217 218 211 211 215 223 227 240 231 223 263 216 221 243 246 226 228 249 270 250 202 251 264 255 241 252 242 248 250 223 208 164 181 197 144 139 111 95 72 58 43 7 340 323 329 60 77 58 30 12 37 79 84
311 308 306 307 305 300 298 299 294 287 267 227 159 267 265 240 229 210 206 196 196 231 255 274 283 284 278 297 307 290 263 220 222 212 217 219 214 215 218 218 217 222 224 218 241 253 233 239 222 226 215 139 211 269 258 245 234 251 247 245 242 242 265 269 264 153 98 134 146 150 105 114 90 67 35 27 333 323 321 7 72 87 82 37 5 29 100
307 307 307 306 306 299 292 285 278 276 233 127 106 300 303 295 188 203 196 194 188 193 248 267 282 277 297 285 286 285 292 244 221 218 216 214 212 213 217 216 225 217 209 215 185 233 231 245 225 207 180 133 214 273 263 254 257 263 265 255 255 273 267 257 275 201 142 142 121 108 105 108 100 92 78 29 343 334 341 357 41 73 69 70 26 330 31
309 311 310 308 307 303 296 286 272 236 156 126 114 210 295 290 286 172 178 189 168 179 230 242 258 307 297 222 238 275 276 288 273 240 219 213 212 210 211 204 220 196 213 221 220 238 230 245 223 205 175 199 204 247 244 259 276 280 276 303 304 269 253 263 270 298 117 113 111 100 100 106 108 88 71 54 24 347 2 2 20 60 78 67 52 315 33
309 309 309 309 310 309 300 285 257 210 171 170 178 180 192 199 215 144 157 148 146 203 233 279 290 256 274 278 234 235 268 271 272 265 254 178 218 206 205 188 210 192 205 213 219 232 225 225 230 232 224 207 200 255 227 239 251 257 282 289 285 266 250 270 280 107 114 119 109 91 88 95 75 79 187 113 75 347 18 34 13 5 63 83 80 44 45
309 309 308 310 315 314 300 273 227 200 197 215 276 307 281 247 151 150 153 141 164 216 195 262 259 313 270 284 306 291 202 323 343 343 330 294 260 157 194 189 210 216 203 216 204 222 212 198 198 237 224 185 208 239 248 248 251 258 266 269 272 255 244 257 227 126 133 100 47 128 152 131 106 109 137 74 53 17 354 42 40 20 34 46 47 45 46
310 309 309 312 317 317 310 263 186 172 138 172 245 233 248 238 190 168 158 160 169 182 203 242 276 255 274 322 308 288 34 34 278 305 340 290 281 65 273 332 201 208 189 183 239 244 256 217 236 255 226 207 212 239 254 241 237 252 257 260 233 234 208 217 145 118 57 68 72 78 97 95 100 110 94 82 56 25 16 24 59 54 37 36 29 29 32
310 310 312 317 322 331 101 122 125 160 201 233 249 259 256 222 197 185 173 148 151 228 201 228 250 282 306 296 289 279 8 44 327 182 207 273 311 165 267 204 275 225 275 111 274 215 230 242 248 278 253 238 236 261 272 280 296 295 296 305 345 300 143 115 97 94 90 87 90 99 102 103 104 102 91 98 102 70 51 49 72 88 65 48 37 25 25
312 310 312 319 117 101 97 109 122 138 202 226 228 232 211 234 209 185 185 187 198 166 197 245 233 248 297 303 316 303 351 300 234 279 232 247 320 236 232 233 285 254 182 167 242 235 256 199 238 256 333 299 261 209 261 284 295 302 333 11 342 302 318 123 117 102 90 88 92 95 96 91 94 98 91 88 99 107 103 93 74 87 88 74 60 42 21
312 313 319 80 132 239 181 175 187 203 226 197 265 256 132 102 60 103 135 165 236 331 242 242 263 236 194 285 305 281 349 311 325 290 289 229 240 272 318 360 255 267 347 310 253 266 258 179 245 294 295 260 269 281 285 291 302 299 325 333 319 356 120 127 116 107 96 91 91 88 90 95 91 93 91 83 76 81 85 71 64 79 80 76 69 67 54
313 319 57 97 78 19 333 271 202 244 283 285 289 225 192 217 143 133 127 127 199 174 229 206 257 273 242 240 252 258 322 273 346 305 298 264 291 268 9 269 262 336 309 314 319 355 292 346 334 300 285 272 283 284 304 320 321 306 323 13 8 23 83 126 126 113 109 103 101 104 98 92 92 93 102 97 93 90 86 92 77 74 83 87 95 102 95
324 332 30 17 62 257 239 266 314 320 308 233 281 279 227 161 182 203 163 183 176 216 194 223 255 224 216 233 258 243 232 301 329 277 289 46 352 307 117 324 9 52 280 300 327 23 327 333 304 317 295 303 321 357 346 360 20 66 47 38 37 44 74 56 67 111 113 115 116 114 117 119 116 108 101 104 99 90 94 91 88 81 83 86 88 87 85
24 7 358 329 186 247 292 314 329 326 278 96 192 119 307 197 158 273 141 123 251 230 194 244 232 227 204 222 252 291 149 186 226 286 289 296 130 281 332 278 339 305 313 335 316 45 35 311 323 317 312 299 266 312 19 35 42 44 54 55 51 51 55 72 71 69 88 93 97 97 93 95 98 103 106 105 105 100 88 78 73 71 69 73 75 76 81
19 331 357 321 281 321 303 316 328 65 61 35 12 139 4 309 212 208 146 222 218 244 196 245 237 249 212 207 208 251 204 215 278 268 281 283 49 266 333 359 19 318 324 304 309 359 347 281 302 262 207 41 50 41 25 29 48 45 51 56 54 47 60 69 69 61 67 73 73 73 76 80 86 88 83 81 85 90 90 86 80 77 73 67 72 77 88
280 259 267 290 296 289 300 294 119 13 351 140 76 297 207 238 264 9 148 97 285 226 205 208 252 259 260 179 207 219 250 195 249 276 295 327 46 324 22 12 10 43 357 288 303 336 337 3 337 29 24 32 56 62 40 30 33 39 41 51 59 54 56 67 73 68 67 75 74 74 74 74 74 75 81 79 73 76 85 83 80 77 78 82 80 76 71
283 276 210 279 302 307 250 3 324 79 30 350 8 340 357 3 325 337 330 235 236 263 259 194 241 253 268 92 239 187 292 95 288 295 344 319 306 26 28 7 342 10 331 321 6 318 7 359 2 21 14 32 33 40 48 51 46 43 42 45 55 60 60 65 69 68 59 62 68 68 69 69 65 62 64 75 78 70 65 73 80 82 76 70 65 65 63
137 142 183 290 2 297 36 349 298 8 348 66 22 353 334 337 339 1 328 332 338 307 356 345 324 337 332 192 286 324 215 250 194 254 291 294 47 349 23 30 337 261 317 20 355 14 334 329 23 24 21 18 19 24 29 35 41 48 48 43 45 48 49 55 56 61 57 55 60 59 59 65 68 64 60 59 64 74 71 68 69 74 75 71 61 53 53
63 2 17 5 28 308 30 342 347 83 4 338 342 323 341 337 318 328 320 316 312 294 315 318 323 338 336 341 104 291 51 345 242 61 350 357 25 315 48 331 308 12 34 12 350 285 307 42 16 17 15 19 20 26 31 38 43 48 49 48 49 53 52 55 57 61 61 58 56 58 59 56 63 64 63 61 60 62 70 69 69 74 74 76 71 63 51
61 82 27 39 12 359 58 336 332 354 341 337 340 313 316 310 307 295 281 285 301 313 325 325 328 316 338 327 66 353 329 346 14 33 2 2 49 349 335 257 350 2 11 29 37 44 36 25 18 15 10 12 15 24 33 42 49 51 51 50 43 46 48 51 51 55 57 60 58 56 55 56 59 63 60 52 53 57 59 62 66 72 74 72 69 68 62
51 6 83 133 82 307 45 10 352 338 298 305 302 303 289 286 282 265 262 270 276 281 289 281 240 273 348 338 2 4 3 331 35 332 38 41 354 292 329 28 12 6 40 38 41 39 42 30 21 11 10 12 20 26 35 45 51 56 56 54 49 46 49 52 52 53 55 60 60 59 56 60 63 65 66 55 47 51 58 62 63 65 70 72 68 65 61
14 256 78 50 4 327 8 332 303 296 264 253 287 292 277 260 316 343 337 314 275 307 316 321 351 343 9 315 63 353 317 353 22 343 17 306 272 31 10 25 17 338 21 51 51 39 42 37 18 23 19 19 24 29 31 39 48 53 56 56 55 52 52 54 51 49 51 55 58 60 60 60 61 60 65 68 60 48 47 51 51 49 54 57 57 54 52
120 70 42 97 330 40 297 306 340 5 351 340 338 351 357 1 355 341 335 326 334 326 285 17 343 50 359 320 26 354 26 337 40 331 344 1 38 7 5 18 352 27 26 27 54 52 44 37 32 27 27 35 28 29 34 32 42 45 47 51 52 54 55 55 55 57 58 56 56 59 57 58 61 61 60 57 56 49 47 53 56 54 51 57 60 58 54
47 22 34 27 349 360 311 266 317 12 0 1 1 358 347 355 354 347 347 342 338 333 338 61 23 74 317 14 7 3 22 342 32 336 27 27 19 352 2 28 13 15 14 20 44 44 35 10 20 34 29 27 31 34 37 32 38 43 43 49 51 53 54 58 56 53 53 59 62 63 61 61 60 60 62 67 68 63 54 48 51 56 52 49 55 57 55
6 91 57 325 56 323 332 23 4 356 2 360 352 350 341 349 349 339 340 341 308 327 44 33 324 37 2 22 23 29 355 328 12 11 12 14 353 22 22 39 352 336 1 43 47 40 36 35 36 38 38 40 41 42 43 46 47 46 47 50 51 52 50 50 54 56 52 46 48 51 51 51 54 62 63 62 60 58 54 46 44 51 55 52 49 55 57
33 26 2 336 1 12 358 275 341 17 335 332 352 342 351 6 342 332 322 324 15 44 20 329 33 8 29 37 358 299 309 23 22 7 40 35 346 25 28 359 334 335 3 50 41 33 32 31 31 37 41 45 45 44 44 42 44 45 47 48 49 50 50 49 50 53 56 53 50 53 52 51 56 57 57 56 54 53 51 46 38 47 53 52 51 53 58